Flag Weather past 2 weeks in Akron, Ohio, U.S.A.

Now
54 °F

More clouds than sun.


Feels Like: 53 °F
Forecast: 43 / 53 °F
Wind: 5 mph from South

Location: Akron Fulton International Airport

Current Time: Nov 23, 2014 at 12:34:38 PM

Latest Report: Nov 23, 2014 at 11:54 AM


Visibility: 10 mi

Pressure: 29.96 "Hg

Humidity: 53%

Dew point: 37 °F

Location of AkronLocation

Historic Weather in Akron — Graph

°F

Akron temperature yesterday

Maximum temperature yesterday: 48 °F (at 11:54 PM)
Minimum temperature yesterday: 21 °F (at 12:54 AM)
Average temperature yesterday: 37 °F

Past Weeks' High & Low Weather Summary

 TemperatureHumidityPressure
High68 °F (Nov 11, 2:54 PM)92% (Nov 17, 1:54 AM)30.52 "Hg (Nov 17, 1:54 AM)
Low11 °F (Nov 18, 7:54 AM)31% (Nov 10, 1:54 PM)29.63 "Hg (Nov 17, 12:59 PM)
Average34 °F64%30.08 "Hg
* Reported Nov 8 10:54 AM — Nov 23 10:54 AM, Akron, Weather by CustomWeather, © 2014

Note: Actual official high and low records may vary slightly from our data, if they occured in-between our weather recording intervals... More about our weather records

Advertising

Akron weather history for previous 24 hours

 ConditionsComfort  
Time TempWeatherWind HumidityBarometerVisibility
10:54 AM
Nov 23
51 °FScattered clouds.8 mph54%30.00 "Hg10 mi
9:54 AM47 °FLight rain. Mostly cloudy.7 mph66%30.04 "Hg10 mi
8:54 AM45 °FLight rain. Overcast.9 mph76%30.05 "Hg5 mi
7:54 AM44 °FOvercast.7 mph85%30.04 "Hg10 mi
6:54 AM44 °FLight rain. Overcast.6 mph85%30.05 "Hg10 mi
5:54 AM45 °FLight rain. Overcast.8 mph74%30.07 "Hg10 mi
4:54 AM45 °FLight rain. Mostly cloudy.5 mph74%30.05 "Hg10 mi
3:54 AM48 °FOvercast.12 mph59%30.05 "Hg10 mi
2:54 AM49 °FOvercast.10 mph55%30.06 "Hg10 mi
1:54 AM48 °FOvercast.8 mph56%30.05 "Hg10 mi
12:54 AM47 °FLight rain. Overcast.8 mph64%30.07 "Hg9 mi
11:54 PM
Nov 22
48 °FPassing clouds.9 mph59%30.06 "Hg10 mi
10:54 PM47 °FLight rain. Mostly cloudy.13 mph64%30.06 "Hg10 mi
9:54 PM45 °FLight rain. Mostly cloudy.9 mph71%30.07 "Hg10 mi
8:54 PM47 °FLight rain. Overcast.13 mph59%30.07 "Hg10 mi
7:54 PM47 °FOvercast.16 mph56%30.07 "Hg10 mi
6:54 PM45 °FOvercast.12 mph63%30.09 "Hg10 mi
5:54 PM43 °FOvercast.10 mph68%30.10 "Hg10 mi
4:54 PM44 °FMostly cloudy.13 mph65%30.11 "Hg10 mi
3:54 PM45 °FMore clouds than sun.16 mph65%30.11 "Hg10 mi
2:54 PM43 °FOvercast.13 mph74%30.12 "Hg10 mi
1:54 PM43 °FOvercast.16 mph76%30.13 "Hg10 mi
12:54 PM41 °FOvercast.16 mph80%30.16 "Hg9 mi
Weather by CustomWeather, © 2014

See weather overviewHow to use our weather pages